Beatrice, NE

5:55 AM CST on February 13, 2016 (GMT -0600)
Beatrice Municipal

Weather History for KBIE - February, 2010

Change the Weather History Date:

Thursday, February 25, 2010

  Actual Average Record
Temperature  
Mean Temperature 19 °F -  
Max Temperature 29 °F 45 °F 72 °F (1981)
Min Temperature 9 °F 23 °F -4 °F (2003)
Degree Days  
Heating Degree Days 46    
Moisture  
Dew Point 5 °F    
Average Humidity 58    
Maximum Humidity 73    
Minimum Humidity 41    
Precipitation  
Precipitation 0.00 in - - ()
Sea Level Pressure  
Sea Level Pressure 30.09 in    
Wind  
Wind Speed 6 mph (ESE)    
Max Wind Speed 13 mph    
Max Gust Speed -    
Visibility 10 miles    
Events      
Averages and records for this station are not official NWS values.
T = Trace of Precipitation, MM = Missing Value Source: NWS Daily Summary

Daily Weather History Graph

Daily Weather History Graph

Search for Another Location

Airport or City:

Trip Planner

Search our weather history database for the weather conditions in past years. The results will help you decide how hot, cold, wet, or windy it might be!

Date:

Astronomy

Feb. 25, 2010 Rise Set
Actual Time 7:06 AM CST 6:14 PM CST
Civil Twilight 6:39 AM CST 6:41 PM CST
Nautical Twilight 6:07 AM CST 7:13 PM CST
Astronomical Twilight 5:36 AM CST 7:44 PM CST
Moon 2:51 PM CST (2/25) 4:55 AM CST (2/25)
Length of Visible Light 12h 02m
Length of Day
11h 07m
Waxing Gibbous, 88% of the Moon is Illuminated
Feb 25
Waxing Gibbous
Feb 28
Full
Mar 7
Last Quarter
Mar 15
New
Mar 23
First Quarter

Hourly Weather History & Observations

Time (CST) Temp. Windchill Dew Point Humidity Pressure Visibility Wind Dir Wind Speed Gust Speed Precip Events Conditions
12:10 AM 10.2 °F 2.0 °F 1.2 °F 67% 30.12 in 10.0 mi East 4.6 mph - N/A   Clear
12:30 AM 10.0 °F 1.8 °F 0.9 °F 66% 30.13 in 10.0 mi East 4.6 mph - N/A   Clear
12:50 AM 10.0 °F 0.4 °F 1.4 °F 68% 30.13 in 10.0 mi East 5.8 mph - N/A   Clear
1:10 AM 9.9 °F -1.1 °F 2.1 °F 71% 30.12 in 10.0 mi East 6.9 mph - N/A   Clear
1:30 AM 9.5 °F -1.5 °F 2.3 °F 73% 30.11 in 10.0 mi East 6.9 mph - N/A   Clear
1:50 AM 9.5 °F - 2.3 °F 73% 30.11 in 10.0 mi Calm Calm - N/A   Clear
2:10 AM 9.3 °F - 2.3 °F 73% 30.11 in 10.0 mi Calm Calm - N/A   Clear
2:30 AM 9.3 °F - 1.9 °F 72% 30.11 in 10.0 mi Calm Calm - N/A   Clear
2:50 AM 9.5 °F - 1.8 °F 71% 30.11 in 10.0 mi Calm Calm - N/A   Clear
3:10 AM 9.5 °F 1.2 °F 1.4 °F 70% 30.11 in 10.0 mi ESE 4.6 mph - N/A   Clear
3:30 AM 9.3 °F 1.0 °F 1.6 °F 71% 30.10 in 10.0 mi East 4.6 mph - N/A   Clear
3:50 AM 9.5 °F 1.2 °F 1.4 °F 70% 30.10 in 10.0 mi ESE 4.6 mph - N/A   Mostly Cloudy
4:10 AM 10.4 °F 2.2 °F 1.4 °F 67% 30.09 in 10.0 mi ESE 4.6 mph - N/A   Overcast
4:30 AM 11.1 °F 1.7 °F 1.8 °F 66% 30.09 in 10.0 mi ESE 5.8 mph - N/A   Overcast
4:50 AM 11.3 °F 0.7 °F 1.6 °F 65% 30.09 in 10.0 mi East 6.9 mph - N/A   Overcast
5:10 AM 11.5 °F 3.5 °F 2.1 °F 66% 30.09 in 10.0 mi ESE 4.6 mph - N/A   Mostly Cloudy
5:30 AM 11.7 °F 2.3 °F 1.4 °F 63% 30.09 in 10.0 mi ESE 5.8 mph - N/A   Scattered Clouds
5:50 AM 11.1 °F 0.4 °F 1.4 °F 65% 30.09 in 10.0 mi East 6.9 mph - N/A   Clear
6:10 AM 10.4 °F -0.4 °F 1.4 °F 67% 30.09 in 10.0 mi East 6.9 mph - N/A   Clear
6:30 AM 10.0 °F -1.9 °F 1.4 °F 68% 30.10 in 10.0 mi East 8.1 mph - N/A   Clear
6:50 AM 10.0 °F -0.9 °F 1.2 °F 68% 30.10 in 10.0 mi ESE 6.9 mph - N/A   Clear
7:10 AM 9.5 °F -1.5 °F 1.2 °F 69% 30.10 in 10.0 mi East 6.9 mph - N/A   Clear
7:30 AM 9.5 °F -0.3 °F 0.9 °F 68% 30.10 in 10.0 mi ESE 5.8 mph - N/A   Clear
7:50 AM 10.0 °F -1.9 °F 0.5 °F 65% 30.11 in 10.0 mi ESE 8.1 mph - N/A   Clear
8:10 AM 10.4 °F 0.8 °F 1.0 °F 66% 30.11 in 10.0 mi ESE 5.8 mph - N/A   Clear
8:30 AM 11.3 °F 3.3 °F 0.9 °F 63% 30.12 in 10.0 mi ESE 4.6 mph - N/A   Clear
8:50 AM 13.1 °F 2.8 °F 0.5 °F 57% 30.12 in 10.0 mi SE 6.9 mph - N/A   Clear
9:10 AM 14.9 °F 5.0 °F 0.5 °F 53% 30.12 in 10.0 mi SE 6.9 mph - N/A   Clear
9:30 AM 15.8 °F 5.1 °F 1.8 °F 54% 30.11 in 10.0 mi ESE 8.1 mph - N/A   Scattered Clouds
9:50 AM 17.2 °F 6.0 °F 2.1 °F 52% 30.11 in 10.0 mi ESE 9.2 mph - N/A   Overcast
10:10 AM 19.2 °F 8.4 °F 2.7 °F 49% 30.10 in 10.0 mi SE 9.2 mph - N/A   Overcast
10:30 AM 20.7 °F 11.0 °F 2.7 °F 46% 30.09 in 10.0 mi SE 8.1 mph - N/A   Overcast
10:50 AM 22.8 °F 11.5 °F 3.2 °F 43% 30.09 in 10.0 mi ESE 11.5 mph - N/A   Mostly Cloudy
11:10 AM 23.7 °F 13.3 °F 3.9 °F 43% 30.09 in 10.0 mi ESE 10.4 mph - N/A   Scattered Clouds
11:30 AM 23.9 °F 15.0 °F 6.4 °F 47% 30.08 in 10.0 mi ESE 8.1 mph - N/A   Clear
11:50 AM 24.6 °F 13.2 °F 7.0 °F 47% 30.08 in 10.0 mi ESE 12.7 mph - N/A   Clear
12:10 PM 25.3 °F 16.0 °F 7.0 °F 46% 30.08 in 10.0 mi ESE 9.2 mph - N/A   Clear
12:30 PM 26.8 °F 17.7 °F 6.4 °F 42% 30.08 in 10.0 mi SE 9.2 mph - N/A   Mostly Cloudy
12:50 PM 27.9 °F 19.1 °F 7.2 °F 42% 30.08 in 10.0 mi ESE 9.2 mph - N/A   Overcast
1:10 PM 29.1 °F 20.6 °F 7.7 °F 41% 30.08 in 10.0 mi ESE 9.2 mph - N/A   Overcast
1:30 PM 29.1 °F 19.4 °F 9.3 °F 44% 30.07 in 10.0 mi ESE 11.5 mph - N/A   Scattered Clouds
1:50 PM 29.3 °F 20.8 °F 9.3 °F 43% 30.07 in 10.0 mi ESE 9.2 mph - N/A   Clear
2:10 PM 29.7 °F 21.3 °F 11.5 °F 47% 30.06 in 10.0 mi ESE 9.2 mph - N/A   Scattered Clouds
2:30 PM 29.3 °F 20.8 °F 12.0 °F 49% 30.05 in 10.0 mi East 9.2 mph - N/A   Mostly Cloudy
2:50 PM 29.1 °F 20.0 °F 11.7 °F 48% 30.05 in 10.0 mi East 10.4 mph - N/A   Clear
3:10 PM 28.8 °F 20.2 °F 12.0 °F 50% 30.05 in 10.0 mi East 9.2 mph - N/A   Clear
3:30 PM 28.2 °F 19.5 °F 11.5 °F 50% 30.05 in 10.0 mi East 9.2 mph - N/A   Clear
3:50 PM 28.4 °F 19.7 °F 12.2 °F 51% 30.06 in 10.0 mi East 9.2 mph - N/A   Clear
4:10 PM 28.2 °F 18.9 °F 12.0 °F 51% 30.06 in 10.0 mi East 10.4 mph - N/A   Clear
4:30 PM 27.9 °F 18.4 °F 11.7 °F 51% 30.06 in 10.0 mi East 10.4 mph - N/A   Clear
4:50 PM 27.1 °F 17.5 °F 9.5 °F 48% 30.06 in 10.0 mi East 10.4 mph - N/A   Clear
5:10 PM 26.4 °F 18.9 °F 10.0 °F 50% 30.07 in 10.0 mi East 6.9 mph - N/A   Clear
5:30 PM 25.5 °F 16.9 °F 12.7 °F 58% 30.07 in 10.0 mi East 8.1 mph - N/A   Clear
5:50 PM 24.3 °F 14.6 °F 11.3 °F 58% 30.07 in 10.0 mi East 9.2 mph - N/A   Clear
6:10 PM 23.0 °F 13.1 °F 10.4 °F 59% 30.08 in 10.0 mi East 9.2 mph - N/A   Clear
6:30 PM 21.9 °F - 9.3 °F 58% 30.09 in 10.0 mi Calm Calm - N/A   Clear
6:50 PM 21.2 °F 14.9 °F 9.5 °F 61% 30.10 in 10.0 mi East 4.6 mph - N/A   Clear
7:10 PM 21.0 °F 14.6 °F 9.7 °F 62% 30.10 in 10.0 mi East 4.6 mph - N/A   Clear
7:30 PM 20.8 °F 16.0 °F 9.5 °F 62% 30.11 in 10.0 mi East 3.5 mph - N/A   Clear
7:50 PM 20.7 °F 14.2 °F 9.5 °F 62% 30.11 in 10.0 mi East 4.6 mph - N/A   Clear
8:10 PM 19.4 °F 11.5 °F 9.3 °F 65% 30.11 in 10.0 mi East 5.8 mph - N/A   Clear
8:30 PM 19.2 °F - 9.3 °F 65% 30.12 in 10.0 mi Calm Calm - N/A   Clear
8:50 PM 19.0 °F - 9.0 °F 65% 30.12 in 10.0 mi Calm Calm - N/A   Clear
9:10 PM 19.0 °F 12.3 °F 9.3 °F 66% 30.12 in 10.0 mi ESE 4.6 mph - N/A   Clear
9:30 PM 18.3 °F 11.5 °F 9.5 °F 68% 30.12 in 10.0 mi ESE 4.6 mph - N/A   Clear
9:50 PM 18.0 °F 9.8 °F 9.5 °F 70% 30.12 in 10.0 mi ESE 5.8 mph - N/A   Clear
10:10 PM 18.5 °F 13.3 °F 9.3 °F 67% 30.12 in 10.0 mi ESE 3.5 mph - N/A   Clear
10:30 PM 18.9 °F 13.7 °F 9.1 °F 66% 30.12 in 10.0 mi SE 3.5 mph - N/A   Clear
10:50 PM 19.0 °F - 9.1 °F 65% 30.13 in 10.0 mi Calm Calm - N/A   Clear
11:10 PM 19.0 °F - 9.3 °F 66% 30.13 in 10.0 mi Calm Calm - N/A   Clear
11:30 PM 18.9 °F - 9.3 °F 66% 30.13 in 10.0 mi Calm Calm - N/A   Clear
11:50 PM 18.9 °F - 9.5 °F 67% 30.13 in 10.0 mi Calm Calm - N/A   Clear